Dewpoint
65 65 66 67 68 69 69 69 69 70 71 70 69 68 72 72 74 75 74 72 70 66 60 59 59 60 56 56 55 54 55 55 53 56 58 59 58 57 56 55 54 53 53
65 67 67 68 69 68 69 69 70 70 70 71 71 70 69 71 73 74 73 72 70 67 62 60 59 57 59 58 52 57 57 58 55 54 56 56 57 56 55 54 53 52 53
66 67 68 69 70 71 71 71 72 72 72 71 71 70 70 71 73 74 73 73 70 69 64 61 60 59 58 54 56 55 55 56 56 54 54 55 55 55 54 54 53 53 54
70 69 69 70 70 71 72 73 73 73 73 72 72 71 71 72 73 73 74 73 71 69 64 61 60 59 56 55 55 56 56 54 55 53 53 53 54 55 53 51 49 51 53
67 67 67 69 72 73 73 73 74 74 73 73 73 72 71 70 70 72 72 73 72 69 62 60 60 57 56 56 54 56 56 53 52 51 51 51 52 53 52 51 50 50 53
70 70 71 71 73 72 72 73 73 73 74 74 73 72 72 71 69 69 71 71 72 69 63 60 58 58 57 56 55 55 55 54 53 51 51 50 54 53 52 51 49 49 50
69 69 70 71 72 70 71 73 74 73 74 74 74 73 73 73 71 68 69 70 71 68 63 59 55 55 55 55 56 55 55 53 54 54 51 51 53 54 54 52 52 52 51
67 68 69 69 70 71 69 68 73 74 74 74 74 71 69 69 70 68 68 72 71 68 63 60 54 56 55 54 53 53 53 54 53 52 53 55 55 55 54 53 53 53 54
64 66 68 69 69 70 70 68 68 73 71 69 69 67 66 67 68 67 67 71 68 65 62 59 56 56 54 54 54 53 53 53 55 54 55 54 52 52 52 50 49 50 51
64 65 67 68 69 69 70 71 71 69 70 69 67 65 66 65 67 66 65 70 66 63 61 58 56 56 53 54 55 54 52 53 53 53 53 53 54 51 51 52 49 48 50
63 65 66 67 68 70 71 72 69 68 68 67 63 63 64 65 66 65 64 68 65 62 60 58 54 55 51 53 55 55 53 54 54 53 53 52 53 53 51 52 52 50 49
63 64 65 66 68 69 71 71 71 65 66 68 63 63 66 69 66 66 64 63 64 64 62 59 56 54 51 52 54 53 53 53 52 52 51 51 52 53 52 52 53 54 53
61 62 64 65 66 68 67 68 71 71 69 70 68 65 65 62 67 67 63 61 62 65 63 60 56 53 51 51 52 51 52 53 52 51 51 51 52 53 54 53 54 54 54
58 61 62 64 65 65 63 63 64 67 68 67 69 69 69 69 67 62 60 61 61 64 59 57 55 53 53 54 52 52 55 54 53 51 51 51 53 52 51 52 50 50 50
57 58 60 60 63 64 59 56 59 56 58 63 64 64 65 66 62 56 60 63 63 63 60 56 54 53 52 53 54 54 55 56 54 53 51 51 51 51 50 51 50 50 48
55 56 57 58 61 62 63 60 55 53 53 54 54 57 62 59 55 56 57 60 62 59 60 58 55 54 53 52 53 54 55 55 55 54 52 51 50 50 50 51 50 50 49
54 54 55 57 60 60 60 61 61 58 55 54 55 55 54 53 53 54 55 57 58 60 62 60 58 56 55 54 54 54 54 55 57 54 52 51 51 50 50 50 50 50 49
54 53 54 55 58 58 58 58 60 61 62 61 58 56 54 53 53 53 54 56 56 60 62 61 60 58 57 55 54 55 55 56 55 53 53 52 51 50 50 50 50 49 48
53 52 53 54 55 55 56 57 59 61 60 59 60 59 58 57 55 54 57 62 59 60 61 60 59 58 56 57 57 57 57 56 55 55 54 52 52 51 50 50 49 49 49
51 51 51 53 54 54 54 54 55 57 57 57 56 55 56 61 60 60 61 61 60 60 60 60 58 58 58 56 56 55 55 55 56 55 54 53 53 52 50 50 49 49 49
48 50 50 51 52 51 52 51 52 54 55 54 51 49 50 57 56 55 55 55 56 56 58 60 60 59 59 57 56 55 54 52 52 54 54 53 53 52 52 51 50 50 49
47 49 50 50 50 50 49 49 49 50 50 51 50 49 49 52 51 50 50 49 50 50 51 53 57 60 59 58 57 55 54 52 53 54 53 53 53 53 53 52 51 50 50
46 47 48 48 48 48 49 48 47 47 47 47 47 46 46 46 46 46 46 46 47 47 47 48 50 52 54 59 58 56 55 54 55 56 55 54 54 53 53 53 52 51 50
45 46 46 46 46 47 47 47 47 46 46 45 45 44 44 44 44 44 44 45 45 45 45 45 45 46 47 49 52 57 58 58 57 56 56 55 56 55 54 53 53 52 52
45 44 45 45 45 45 46 46 46 46 45 45 44 43 43 43 42 42 42 43 42 43 43 43 43 43 43 45 46 46 45 46 55 57 58 58 57 56 54 54 53 53 53
44 44 44 44 44 43 44 44 44 44 43 42 42 41 41 39 39 39 39 37 38 38 38 39 40 41 40 41 41 39 40 43 50 55 59 58 58 57 57 56 54 53 53
Wind_Speed
18 18 17 16 14 13 13 13 14 13 12 11 10 10 10 11 11 10 8 7 7 4 3 4 2 2 2 3 3 3 1 2 0 3 3 7 5 3 2 5 5 4 5
16 14 16 15 14 15 16 16 15 16 14 13 13 12 13 13 12 12 10 8 8 6 6 5 2 2 2 2 3 4 2 2 1 9 4 2 3 2 3 5 7 7 7
11 12 12 13 13 15 15 14 16 16 16 15 13 13 13 12 11 11 10 9 8 9 7 6 3 2 2 3 4 5 4 5 3 7 6 4 3 2 1 4 5 6 9
7 9 12 12 13 15 15 16 16 15 16 17 16 15 14 12 11 11 11 11 9 9 7 6 4 3 4 4 5 5 4 5 6 7 9 7 4 0 2 5 4 6 7
3 2 3 5 6 10 13 16 16 17 18 19 17 16 16 15 14 14 14 13 12 10 8 7 6 5 6 6 4 3 3 3 5 6 8 7 4 1 3 4 5 4 6
5 2 1 4 4 7 13 12 13 17 18 17 16 15 15 16 17 20 17 13 11 12 11 9 9 10 9 12 11 6 4 4 5 4 7 7 4 2 1 5 5 6 4
10 8 5 6 7 5 9 6 14 16 16 15 12 9 12 15 19 19 21 12 13 15 14 14 12 9 11 13 15 13 11 8 6 5 8 6 5 3 1 3 6 8 4
12 13 11 10 10 9 10 12 9 13 13 9 5 7 7 9 18 15 16 14 11 13 15 15 14 15 12 14 13 11 11 8 7 7 8 5 7 4 3 4 5 3 5
8 10 11 10 10 10 11 11 9 7 8 5 5 5 6 3 9 18 15 16 13 15 15 16 17 16 18 18 15 13 11 10 8 11 12 9 9 6 6 3 5 4 7
11 11 12 11 12 14 13 13 12 12 11 7 6 4 1 8 10 8 14 10 15 14 14 14 17 18 24 19 15 13 14 11 10 10 12 11 8 6 3 6 5 5 5
11 12 12 12 12 13 13 11 10 9 11 11 5 10 13 7 5 14 9 20 14 16 16 16 16 23 26 19 15 11 11 15 11 8 8 8 6 4 5 5 6 7 4
16 12 12 13 13 12 14 10 9 9 6 3 6 11 20 8 12 4 20 30 16 19 18 17 16 27 27 20 15 18 19 13 10 7 6 7 7 5 5 5 6 6 6
13 13 14 13 13 13 11 12 6 7 9 6 6 4 9 9 10 20 23 20 17 11 12 14 19 30 27 19 15 22 19 9 9 8 4 4 6 6 7 6 8 9 9
13 13 13 14 16 11 10 7 4 1 4 6 4 6 6 7 5 5 14 15 14 8 13 15 17 20 19 14 17 19 9 9 7 7 7 6 6 8 8 6 7 7 7
11 12 11 12 13 13 5 8 3 3 3 3 1 2 5 7 4 1 6 12 13 12 15 16 17 18 19 17 16 16 13 11 10 8 11 10 7 7 8 7 6 6 7
12 10 11 13 14 12 13 2 4 3 5 6 6 3 4 4 3 0 1 6 15 24 9 16 18 20 21 21 19 15 16 14 12 11 10 10 10 8 7 8 6 6 8
11 11 11 10 12 13 14 15 8 3 1 3 6 13 11 8 6 3 2 7 17 20 9 15 17 18 19 20 19 19 17 15 12 10 11 10 11 9 10 9 8 7 8
10 8 10 10 11 13 13 14 15 7 5 2 5 8 9 13 5 4 9 13 12 6 4 10 13 14 16 19 18 18 14 15 15 15 14 11 12 12 11 10 10 9 10
10 9 10 10 9 11 11 13 13 7 1 1 1 1 7 7 5 6 4 6 12 10 3 5 8 12 12 11 11 12 14 14 14 14 14 15 13 12 11 10 10 8 9
9 8 9 9 10 9 9 10 12 10 5 3 3 4 5 0 6 7 7 6 6 6 5 5 6 9 12 15 14 15 16 17 17 16 16 13 12 10 11 11 11 13 11
9 9 10 8 9 9 8 8 8 8 6 3 3 6 7 2 6 7 7 8 7 6 5 1 4 6 9 12 14 15 16 17 15 13 14 13 14 13 10 10 11 11 11
6 7 8 9 8 7 7 7 7 6 5 5 4 5 7 7 7 7 7 7 7 7 6 5 3 3 8 10 13 15 16 17 16 17 16 15 13 13 10 9 10 11 11
9 8 8 7 8 7 4 4 5 5 2 3 4 5 7 9 8 8 8 8 8 8 8 7 6 6 5 4 11 14 17 19 17 17 17 18 15 15 15 14 13 12 12
10 11 9 7 7 6 3 2 1 4 2 4 5 6 8 9 9 8 7 8 7 7 7 7 7 7 6 6 5 2 10 12 15 19 20 18 17 14 13 14 15 15 14
11 11 9 8 6 6 4 3 4 3 2 5 6 7 8 9 10 10 9 9 8 8 8 8 7 7 7 6 6 5 4 4 10 18 19 19 19 17 17 17 15 14 15
11 11 9 8 7 6 6 6 6 5 5 7 9 10 10 10 10 10 9 9 9 9 10 9 9 9 8 5 5 11 10 7 9 15 18 18 17 15 12 13 12 12 12
Wind_Direction
216 219 224 226 228 229 236 245 247 251 254 260 266 271 258 245 239 218 220 229 243 220 198 231 240 110 18 354 348 328 279 240 224 107 88 128 99 106 333 337 330 338 359
228 226 224 227 224 230 234 234 233 240 244 249 257 255 254 249 241 233 222 228 239 235 216 223 225 142 87 5 19 23 20 105 87 131 120 123 96 79 348 346 343 5 4
228 233 250 254 246 243 245 247 246 240 239 237 241 247 250 241 236 238 241 217 223 244 222 215 202 177 118 54 57 74 71 88 111 134 131 162 134 244 320 317 356 20 30
235 235 246 252 257 262 260 257 255 250 244 239 229 231 235 239 230 233 237 229 209 232 208 203 190 177 137 112 91 95 86 96 107 116 128 124 117 174 346 354 3 15 21
65 93 243 237 240 262 264 261 258 248 244 239 233 229 231 229 232 225 224 225 211 210 195 175 172 131 132 110 105 97 106 106 124 128 130 132 117 155 357 348 330 5 74
327 87 283 269 273 283 282 277 275 262 252 242 237 234 236 239 233 219 219 222 203 196 186 172 145 133 123 105 94 62 68 117 123 135 138 114 121 111 62 344 360 34 20
337 350 342 291 279 281 298 275 262 269 260 249 243 246 257 254 249 226 216 217 200 190 180 172 157 148 137 116 100 95 75 70 78 128 123 121 118 101 32 17 42 64 54
339 335 331 317 312 311 296 287 258 249 251 242 196 105 64 19 350 279 217 203 199 189 184 171 160 156 151 135 117 102 93 84 96 114 110 95 105 113 82 75 72 77 107
332 314 312 306 299 293 278 265 259 237 167 183 194 148 109 77 16 348 216 189 187 179 179 172 161 159 159 143 129 118 107 99 83 85 87 84 83 86 87 110 77 118 82
330 317 311 314 313 301 293 270 261 236 223 201 281 347 260 277 97 44 259 213 180 172 177 171 165 163 164 155 138 136 127 128 128 125 114 105 104 97 65 72 67 73 84
336 326 331 332 316 306 303 274 269 248 237 229 199 12 348 339 321 41 331 254 181 176 176 174 176 165 167 161 149 144 141 140 135 142 133 127 113 111 118 83 61 28 39
347 350 349 334 323 320 318 314 242 262 256 318 329 344 7 344 60 284 250 236 202 188 177 178 175 172 166 165 161 136 141 145 138 150 156 141 127 118 110 97 89 59 57
354 351 345 337 343 335 346 350 336 243 264 254 263 306 309 16 90 252 234 206 198 188 174 174 169 171 163 165 151 148 153 155 147 151 164 153 130 130 128 119 105 100 93
354 351 348 343 342 343 353 18 14 39 255 283 301 194 250 237 237 241 209 187 186 145 131 134 158 172 165 172 155 163 181 167 166 148 145 134 147 156 137 141 141 132 119
347 345 344 343 338 341 4 8 359 3 281 308 68 200 232 218 253 220 173 179 177 166 133 136 155 167 180 184 182 184 185 176 173 161 151 155 161 158 141 141 146 149 139
343 347 348 341 336 341 338 308 49 39 25 52 68 83 201 216 187 331 161 191 164 145 140 164 172 181 190 191 190 190 190 184 188 173 169 163 162 164 156 147 158 159 147
346 342 336 341 337 344 340 327 291 202 284 27 51 40 34 302 281 241 167 174 179 163 186 183 183 186 192 198 195 194 196 186 181 179 174 174 162 158 167 158 157 163 159
340 344 336 338 339 338 338 324 316 258 219 230 4 19 27 38 40 136 139 131 170 208 180 191 188 187 191 195 195 193 185 179 169 172 186 176 174 164 173 165 159 170 165
342 345 341 332 336 336 335 337 328 324 297 100 12 121 12 26 60 120 161 155 171 190 179 192 179 174 177 178 178 174 159 168 171 181 186 188 188 174 174 171 157 163 163
340 345 338 341 335 344 345 341 339 333 328 3 18 4 329 206 81 68 72 109 138 164 181 192 188 183 180 182 177 166 161 173 185 197 190 185 179 191 178 174 166 164 179
340 341 341 342 342 342 344 343 331 329 323 3 26 356 320 80 80 69 58 46 49 52 46 76 180 194 189 181 173 171 182 182 184 187 183 176 180 184 208 179 171 171 170
353 352 347 338 330 332 337 342 337 340 354 343 349 359 35 71 65 62 59 46 29 28 14 338 344 196 186 187 181 182 187 188 186 182 187 170 179 186 187 181 179 177 172
0 4 358 340 325 321 327 342 351 341 19 19 10 37 49 63 60 55 49 43 35 27 15 7 9 3 16 192 196 195 194 199 197 185 176 167 178 177 183 186 188 187 190
13 5 354 338 325 323 360 335 53 23 18 71 68 67 71 72 68 59 53 52 48 40 32 24 19 19 6 1 352 258 218 206 185 186 179 174 169 181 195 202 209 202 196
17 9 352 344 348 350 359 43 74 68 64 79 80 71 72 73 74 63 50 48 48 43 37 28 16 6 5 355 345 336 326 307 204 187 182 172 169 184 204 213 209 205 207
25 21 4 9 23 29 40 53 58 68 78 83 81 78 77 75 70 67 58 52 47 41 36 26 13 12 359 339 326 310 293 264 227 197 188 178 185 187 194 210 203 208 210